Regional Weather Roundup
Issued by NWS Albany, NY

Home | Current Version | Previous Version | Graphics & Text | Print | Product List | Glossary Off
Versions: 1 2 3 4 5 6 7 8 9 10 11 12 13 14 15 16 17 18 19 20 21 22 23 24 25 26 27 28 29 30 31 32 33 34 35 36 37 38 39 40 41 42 43 44 45 46 47 48 49 50

456
ASUS41 KALY 170410
RWRALY

NEW YORK STATE HOURLY WEATHER ROUNDUP
NATIONAL WEATHER SERVICE ALBANY NY
1100 PM EST TUE JAN 16 2018

NOTE: "FAIR" INDICATES FEW OR NO CLOUDS BELOW 12,000 FEET WITH NO
SIGNIFICANT WEATHER AND/OR NO OBSTRUCTIONS TO VISIBILITY.

NYZ032-033-038>043-046>054-057>066-NYZ062>081-082-084-170500-
EAST


CITY           SKY/WX    TMP DP  RH WIND       PRES   REMARKS
ALBANY         LGT SNOW  28  24  85 N5        30.39F VSB 1   WCI  23
GLENS FALLS    LGT SNOW  23  22  96 CALM      30.39F FOG
POUGHKEEPSIE   LGT SNOW  29  27  92 CALM      30.36F FOG
NEWBURGH       LGT SNOW  28  28 100 CALM      30.35F FOG
MONTGOMERY     LGT SNOW  28  26  92 CALM      30.34F FOG
WHITE PLAINS   MOCLDY    33  28  81 E5        30.34F WCI  29
ISLIP          CLOUDY    38  35  89 E7        30.35F WCI  33
NEW YORK CITY  CLOUDY    33  29  85 NE6       30.36F WCI  28
CENTRAL PARK   FAIR      34  30  85 NE3       30.37F
$$

NYZ005>009-017-018-044>046-055-056-170500-
CENTRAL


CITY           SKY/WX    TMP DP  RH WIND       PRES   REMARKS
FULTON         CLOUDY    23  21  92 CALM      30.36F
SYRACUSE       LGT SNOW  24  24 100 CALM      30.36F FOG
ROME           LGT SNOW  23  22  96 CALM      30.38F FOG
ELMIRA         LGT SNOW  27  26  96 NE3       30.31F FOG
BINGHAMTON     LGT SNOW  24  23  96 CALM      30.27F VSB 1
MONTICELLO     LGT SNOW  26  25  96 CALM      30.31F VSB 1
$$

NYZ026>034-041>043-087-170500-
NORTH


CITY           SKY/WX    TMP DP  RH WIND       PRES   REMARKS
WATERTOWN      CLOUDY    11  10  96 N3        30.38F FOG
FORT DRUM      NOT AVBL
OGDENSBURG     CLOUDY     7   5  91 CALM      30.39F
MASSENA        CLOUDY    10   8  92 CALM      30.42F
SARANAC LAKE   LGT SNOW  19  16  88 SW7       30.28S FOG     WCI  10
PLATTSBURGH    MOCLDY    15  12  88 CALM      30.40S FOG
$$

NYZ001>004-010>016-019>021-085-170500-
WEST


CITY           SKY/WX    TMP DP  RH WIND       PRES   REMARKS
NIAGARA FALLS  CLOUDY    17   7  64 SW9       30.40R WCI   6
BUFFALO        FLURRIES  16  10  77 SW12      30.39S WCI   3
DUNKIRK        FLURRIES  14   7  73 S9        30.42S WCI   2
JAMESTOWN      FLURRIES   8   3  80 SW7       30.33S WCI  -3
WELLSVILLE     LGT SNOW  21  19  92 N5        30.25F FOG     WCI  15
ROCHESTER      LGT SNOW  20  15  81 W10       30.38S WCI   9
PENN YAN       LGT SNOW  24  21  88 CALM      30.31F FOG
$$

             KEY
       WCI = WIND CHILL INDEX
       VSB = VISIBILITY
       HX  = HEAT INDEX
$$




USA.gov is the U.S. government's official web portal to all federal, state and local government web resources and services.